[[{"header":{"parameterUnit":"m.s-1","parameterCategory":1,"la1":30.2991,"la2":30.254,"lo1":-89.0895,"lo2":-89.0444,"dy":0.0017,"dx":0.0017,"nx":28,"ny":28,"refTime":"2024-04-22T03:00:00:Z","depth":0,"parameterNumber":2,"parameterNumberName":"U-component_of_WINDS"},"data":[0,0,0,0,0,0,0,0,0,0,0,0,0,0,0,0,0,0,0,0,0,0,0,0,0,0,0,0,0,0,0,0,0,0,0,0,0,0,0,0,0,0,0,0,0,0,0,0,0,0,0,0,0,0,0,0,0,0,-2.7617,-2.7617,0,-2.7679,-2.768,-2.7681,-2.7672,-2.767,-2.7669,-2.7668,-2.7736,-2.7739,-2.7742,0,0,0,0,0,0,0,0,0,0,0,0,0,-2.7494,-2.7496,-2.7617,-2.7617,-2.7618,-2.7679,-2.768,-2.7681,-2.7672,-2.767,-2.7669,-2.7668,-2.7735,-2.7739,-2.7742,0,0,0,0,0,0,0,0,0,0,0,0,0,-2.7551,-2.7497,-2.7616,-2.7621,-2.7622,-2.7679,-2.768,-2.7681,-2.7672,-2.767,-2.7669,-2.7667,-2.7734,-2.7738,-2.7742,-2.7801,0,0,-2.7755,-2.7757,0,0,0,0,0,0,0,0,-2.7548,-2.7555,-2.7619,-2.7621,-2.7622,-2.7666,-2.7662,-2.7721,-2.7672,-2.7653,-2.7668,-2.7667,-2.7714,-2.772,-2.7736,-2.7804,-2.7807,-2.7756,-2.7758,-2.776,-2.7761,0,0,0,0,0,0,0,-2.7544,-2.7553,-2.7642,-2.762,-2.7622,-2.7621,-2.7628,-2.7673,-2.7692,-2.7655,-2.7654,-2.7661,-2.7715,-2.7732,-2.7737,-2.7808,-2.7756,-2.7759,-2.7762,-2.7764,-2.7929,-2.7931,0,0,0,0,0,0,-2.7538,-2.7549,-2.764,-2.7643,-2.758,-2.7625,-2.7632,-2.7653,-2.7692,-2.7696,-2.7663,-2.7661,-2.7725,-2.7732,-2.7739,-2.781,-2.776,-2.7764,-2.7766,-2.7927,-2.7929,-2.7931,0,0,0,0,0,0,-2.7535,-2.7546,-2.7637,-2.7596,-2.7608,-2.7629,-2.7653,-2.7656,-2.7672,-2.7698,-2.7701,-2.7676,-2.7724,-2.7734,-2.7786,-2.7813,-2.7766,-2.777,-2.7925,-2.7928,-2.793,-2.7953,0,0,0,0,0,0,-2.7532,-2.7545,-2.7566,-2.7597,-2.761,-2.768,-2.7655,-2.7658,-2.7679,-2.7677,-2.7711,-2.7715,-2.7724,-2.7779,-2.779,-2.7818,-2.7773,-2.7922,-2.7926,-2.7929,-2.7949,-2.7956,-2.7961,0,0,0,0,0,-2.7527,-2.757,-2.7567,-2.7578,-2.7636,-2.7682,-2.769,-2.7697,-2.7681,-2.7703,-2.772,-2.7714,-2.7809,-2.7785,-2.7796,-2.7826,-2.7921,-2.7925,-2.7929,-2.7947,-2.7955,-2.7961,0,0,0,0,0,0,-2.7542,-2.7574,-2.7571,-2.7625,-2.7651,-2.768,-2.7708,-2.7705,-2.7737,-2.7734,-2.7744,-2.7752,-2.7805,-2.7821,-2.7794,-2.7885,-2.7863,-2.7869,-2.7872,-2.788,-2.7885,-2.788,-2.7776,0,0,0,0,0,-2.7552,-2.7585,-2.7612,-2.7657,-2.767,-2.7687,-2.7707,-2.7711,-2.7739,-2.775,-2.777,-2.7799,-2.7835,-2.7859,-2.7893,-2.7953,-2.7961,-2.7979,-2.7985,-2.799,-2.7995,-2.8029,-2.8038,-2.7945,-2.7945,-2.7945,0,0,-2.7572,-2.7593,-2.7614,-2.766,-2.7681,-2.7716,-2.7696,-2.7734,-2.7761,-2.7756,-2.7806,-2.7823,-2.7855,-2.7911,-2.7937,-2.7927,-2.8023,-2.7995,-2.7998,-2.8001,-2.8034,-2.8043,-2.8051,-2.7948,-2.7947,-2.7947,0,0,-2.7626,-2.7645,-2.7685,-2.7707,-2.7738,-2.7749,-2.7759,-2.779,-2.78,-2.7851,-2.7848,-2.7882,-2.7944,-2.7967,-2.7987,-2.8054,-2.805,-2.8065,-2.8095,-2.8128,-2.8135,-2.8142,-2.8166,-2.8174,-2.8071,-2.8071,-2.8071,0,-2.7647,-2.7699,-2.7706,-2.7745,-2.7766,-2.7763,-2.7805,-2.7826,-2.7868,-2.7883,-2.7871,-2.7949,-2.7971,-2.8033,-2.8049,-2.8066,-2.8078,-2.806,-2.8133,-2.814,-2.8146,-2.8169,-2.8178,-2.8072,-2.8072,-2.8072,-2.8072,0,-2.7723,-2.776,-2.7789,-2.7828,-2.7853,-2.7893,-2.7908,-2.7933,-2.7936,-2.7949,-2.8002,-2.8028,-2.8069,-2.8084,-2.8088,-2.8148,-2.814,-2.8131,-2.8108,-2.8156,-2.8178,-2.8187,-2.8075,-2.8074,-2.8073,-2.8073,0,0,-2.7786,-2.7831,-2.7841,-2.7859,-2.7895,-2.7924,-2.7966,-2.8004,-2.8026,-2.8056,-2.8091,-2.8145,-2.8137,-2.816,-2.8166,-2.8195,-2.8247,-2.8182,-2.8183,-2.8193,-2.8316,-2.8322,-2.8332,-2.8245,-2.8247,-2.8249,-2.8313,0,-2.7844,-2.7914,-2.7923,-2.7987,-2.8021,-2.8021,-2.8057,-2.8084,-2.8098,-2.8131,-2.8148,-2.8186,-2.8172,-2.8186,-2.8215,-2.8234,-2.8272,-2.823,-2.8279,-2.8281,-2.827,-2.8343,-2.8349,-2.8409,-2.8322,-2.8323,-2.8324,0,-2.7919,-2.795,-2.8016,-2.8049,-2.8064,-2.8096,-2.8133,-2.8164,-2.8196,-2.8205,-2.8231,-2.8235,-2.828,-2.8257,-2.8319,-2.8291,-2.8312,-2.8325,-2.8328,-2.8331,-2.8304,-2.8348,-2.8428,-2.8437,-2.8338,-2.8337,-2.8336,0,-2.7958,-2.8017,-2.8064,-2.808,-2.8119,-2.8142,-2.816,-2.819,-2.8213,-2.8247,-2.8262,-2.8301,-2.8322,-2.8353,-2.8368,-2.835,-2.843,-2.8408,-2.844,-2.8439,-2.8455,-2.8454,-2.8538,-2.8471,-2.8471,-2.847,-2.847,0,-2.802,-2.806,-2.8082,-2.8111,-2.8158,-2.817,-2.8216,-2.8233,-2.826,-2.8294,-2.8297,-2.833,-2.8348,-2.8383,-2.8396,-2.8446,-2.8456,-2.8465,-2.8468,-2.8464,-2.8463,-2.8477,-2.8473,-2.8473,-2.8472,-2.8472,-2.8471,0,-2.807,-2.8086,-2.8138,-2.8171,-2.8181,-2.8213,-2.8243,-2.8272,-2.8288,-2.8331,-2.8342,-2.8366,-2.8409,-2.8427,-2.8479,-2.8488,-2.8545,-2.8545,-2.8534,-2.8534,-2.8565,-2.8562,-2.8661,-2.8675,-2.8599,-2.8599,-2.86,0,-2.8108,-2.8139,-2.8176,-2.8198,-2.8216,-2.8252,-2.8276,-2.8291,-2.8316,-2.8355,-2.8381,-2.8423,-2.8457,-2.8525,-2.8548,-2.8589,-2.859,-2.8622,-2.8596,-2.8592,-2.859,-2.8587,-2.8591,-2.8626,-2.8627,-2.8627,-2.8628,0,-2.8174,-2.818,-2.8214,-2.8251,-2.8279,-2.8309,-2.8339,-2.8358,-2.8377,-2.8406,-2.8448,-2.8475,-2.8528,-2.8571,-2.8613,-2.8633,-2.8635,-2.8636,-2.8646,-2.8642,-2.8634,-2.8638,-2.8546,-2.8633,-2.8633,-2.8633,-2.8632,-2.8632,-2.8219,-2.8247,-2.8277,-2.8315,-2.8339,-2.8367,-2.8396,-2.8416,-2.8451,-2.8494,-2.8502,-2.8548,-2.8581,-2.8638,-2.866,-2.8698,-2.869,-2.8704,-2.8707,-2.871,-2.8711,-2.8629,-2.8706,-2.8706,-2.8706,-2.8705,-2.8705,0,-2.8284,-2.8304,-2.8339,-2.838,-2.841,-2.8408,-2.8442,-2.8467,-2.8507,-2.8538,-2.8572,-2.8622,-2.8663,-2.8691,-2.8734,-2.8759,-2.876,-2.8769,-2.8767,-2.8772,-2.8716,-2.8703,-2.8767,-2.8767,-2.8767,-2.8767,-2.8767,-2.8767,-2.8321,-2.8369,-2.838,-2.844,-2.8461,-2.8504,-2.8524,-2.855,-2.8575,-2.863,-2.8664,-2.8682,-2.8712,-2.8757,-2.8796,-2.8804,-2.8819,-2.8828,-2.8835,-2.8782,-2.8776,-2.8769,-2.8758,-2.8832,-2.8832,-2.8888,-2.8889,-2.8889]},{"header":{"parameterUnit":"m.s-1","parameterCategory":1,"la1":30.2991,"la2":30.254,"lo1":-89.0895,"lo2":-89.0444,"dy":0.0017,"dx":0.0017,"nx":28,"ny":28,"refTime":"2024-04-22T03:00:00:Z","depth":0,"parameterNumber":3,"parameterNumberName":"V-component_of_WINDS"},"data":[0,0,0,0,0,0,0,0,0,0,0,0,0,0,0,0,0,0,0,0,0,0,0,0,0,0,0,0,0,0,0,0,0,0,0,0,0,0,0,0,0,0,0,0,0,0,0,0,0,0,0,0,0,0,0,0,0,0,2.9477,2.9477,0,2.9477,2.9477,2.9477,2.9436,2.9435,2.9434,2.9433,2.9431,2.9432,2.9433,0,0,0,0,0,0,0,0,0,0,0,0,0,2.9444,2.9445,2.9477,2.9477,2.9477,2.9477,2.9477,2.9477,2.9436,2.9435,2.9433,2.9432,2.9431,2.9432,2.9433,0,0,0,0,0,0,0,0,0,0,0,0,0,2.9452,2.9445,2.9477,2.9457,2.9455,2.9477,2.9477,2.9477,2.9436,2.9435,2.9433,2.9432,2.9431,2.9432,2.9433,2.9474,0,0,2.9438,2.9438,0,0,0,0,0,0,0,0,2.9452,2.9454,2.946,2.9458,2.9456,2.9455,2.9464,2.9476,2.9437,2.9443,2.9433,2.9431,2.944,2.9441,2.9444,2.9474,2.9474,2.9438,2.9439,2.9439,2.944,0,0,0,0,0,0,0,2.9451,2.9453,2.9477,2.946,2.9458,2.9448,2.9448,2.9466,2.9451,2.9443,2.944,2.944,2.9439,2.9443,2.9444,2.9474,2.9438,2.9439,2.944,2.9441,2.954,2.9541,0,0,0,0,0,0,2.9454,2.9453,2.9477,2.9477,2.945,2.945,2.9449,2.9457,2.945,2.9448,2.9442,2.9438,2.9441,2.9442,2.9444,2.9492,2.9439,2.9441,2.9442,2.9538,2.954,2.9542,0,0,0,0,0,0,2.9453,2.9456,2.9477,2.9464,2.9466,2.9452,2.9461,2.9458,2.9461,2.945,2.9447,2.9448,2.944,2.9442,2.9467,2.9491,2.9441,2.9443,2.9536,2.9538,2.9541,2.9589,0,0,0,0,0,0,2.9452,2.9456,2.9471,2.9465,2.9467,2.9501,2.9462,2.9459,2.9464,2.946,2.9455,2.9453,2.9439,2.9466,2.9469,2.9493,2.9444,2.9533,2.9537,2.954,2.9585,2.9593,2.9599,0,0,0,0,0,2.9451,2.9484,2.9472,2.9475,2.9485,2.9502,2.9503,2.9487,2.9466,2.9481,2.9474,2.9453,2.9489,2.9469,2.9472,2.9496,2.9532,2.9536,2.954,2.9582,2.9591,2.9599,0,0,0,0,0,0,2.9492,2.9482,2.9469,2.9501,2.9503,2.9495,2.9513,2.9497,2.9504,2.95,2.9479,2.9478,2.9508,2.9504,2.9482,2.9537,2.9507,2.9511,2.9537,2.9546,2.9553,2.9553,2.9445,0,0,0,0,0,2.9505,2.9519,2.951,2.9539,2.9541,2.9527,2.9534,2.9521,2.9522,2.9522,2.9517,2.9518,2.953,2.9538,2.9548,2.9585,2.9584,2.9603,2.9611,2.9617,2.9621,2.9642,2.9651,2.9555,2.9555,2.9555,0,0,2.9531,2.9528,2.9538,2.9547,2.9547,2.9563,2.9528,2.9545,2.9557,2.9525,2.9549,2.9546,2.9546,2.9578,2.9592,2.9576,2.9648,2.9622,2.9627,2.9628,2.9647,2.9656,2.9664,2.9558,2.9557,2.9557,0,0,2.9587,2.9586,2.961,2.9612,2.9612,2.9604,2.961,2.9605,2.9602,2.9627,2.9603,2.9617,2.9637,2.9639,2.9643,2.9703,2.9684,2.9707,2.9744,2.9765,2.9772,2.9779,2.9801,2.9809,2.9711,2.9711,2.9711,0,2.9619,2.9642,2.9625,2.9645,2.965,2.9623,2.9649,2.9651,2.9654,2.9659,2.9642,2.9668,2.9667,2.9699,2.9715,2.9718,2.9725,2.9706,2.9772,2.9779,2.9785,2.9806,2.9814,2.9714,2.9714,2.9713,2.9713,0,2.9682,2.9699,2.9719,2.9724,2.9732,2.9755,2.9742,2.9752,2.9739,2.9733,2.9759,2.9757,2.9766,2.9773,2.9761,2.9805,2.9796,2.9776,2.9745,2.9797,2.9817,2.9824,2.9718,2.9717,2.9716,2.9715,0,0,2.9762,2.976,2.9768,2.9771,2.9771,2.9783,2.9806,2.9816,2.9826,2.983,2.9849,2.9868,2.985,2.9854,2.9842,2.986,2.991,2.9838,2.9838,2.9852,2.996,2.9975,2.9984,2.9898,2.9899,2.99,2.996,0,2.9817,2.9854,2.9841,2.9879,2.9895,2.9871,2.9891,2.9894,2.9889,2.9902,2.9896,2.991,2.9886,2.9888,2.9905,2.99,2.9931,2.9896,2.9915,2.9916,2.9915,2.9994,3.0009,3.0066,2.9967,2.9969,2.997,0,2.9885,2.9894,2.9934,2.9934,2.994,2.9958,2.9967,2.998,2.9983,2.9979,2.9985,2.9969,2.9992,2.9962,2.9993,2.997,2.9977,2.9976,2.9978,2.9979,2.9945,2.9997,3.0083,3.0092,2.9981,2.998,2.9979,0,2.994,2.9962,2.9989,2.9992,2.9993,3.0006,3.0007,3.0008,3.0016,3.0025,3.003,3.0041,3.0047,3.0056,3.0045,3.0024,3.0078,3.0047,3.0075,3.0076,3.0087,3.0086,3.0175,3.0092,3.0092,3.0092,3.0092,0,3.0002,3.0028,3.0014,3.0031,3.006,3.0045,3.0074,3.0072,3.0074,3.0091,3.0071,3.0087,3.0071,3.0086,3.0077,3.0105,3.0108,3.0105,3.0102,3.0106,3.0107,3.0111,3.0106,3.0094,3.0094,3.0093,3.0093,0,3.0068,3.0059,3.0088,3.0087,3.0087,3.0109,3.0108,3.0124,3.0118,3.014,3.0144,3.0136,3.0152,3.0142,3.0159,3.0153,3.019,3.0181,3.0189,3.0186,3.0215,3.0213,3.031,3.0322,3.0231,3.0232,3.0233,0,3.0108,3.0127,3.0129,3.0139,3.0142,3.0158,3.0166,3.0153,3.0163,3.017,3.0186,3.0201,3.0212,3.024,3.0236,3.0249,3.0241,3.0274,3.0243,3.0247,3.0242,3.0241,3.0243,3.028,3.0281,3.0282,3.0283,0,3.018,3.0176,3.0189,3.0202,3.0213,3.0222,3.023,3.0239,3.0226,3.0239,3.0256,3.0265,3.0283,3.0299,3.0311,3.0311,3.0295,3.0293,3.03,3.0305,3.0308,3.0307,3.0206,3.029,3.029,3.0289,3.0289,3.0288,3.0234,3.0252,3.0256,3.0272,3.0277,3.0285,3.0301,3.0298,3.0313,3.0327,3.0318,3.0339,3.0344,3.0358,3.0362,3.0378,3.0365,3.0375,3.0378,3.038,3.0385,3.0306,3.038,3.038,3.038,3.038,3.0379,0,3.0306,3.0309,3.0324,3.0336,3.0349,3.0334,3.0342,3.0354,3.0373,3.0379,3.0392,3.0413,3.0428,3.0426,3.0441,3.0454,3.0448,3.0459,3.0457,3.0458,3.0396,3.0388,3.0464,3.0464,3.0464,3.0464,3.0464,3.0464,3.0345,3.0374,3.0371,3.0402,3.0404,3.0425,3.0431,3.0439,3.0444,3.0469,3.0482,3.0481,3.0484,3.0499,3.0514,3.0513,3.0519,3.0533,3.0529,3.0471,3.0462,3.0454,3.0447,3.0534,3.0535,3.059,3.0591,3.0591]}]]